Regional Weather Roundup
Issued by NWS

Home | Current Version | Previous Version | Text Only | Print | Product List | Glossary On
Versions: 1 2 3 4 5 6 7 8 9 10 11 12 13 14 15 16 17 18 19 20 21 22 23 24 25 26 27 28 29 30 31 32 33 34 35 36 37 38 39 40 41 42 43 44 45 46 47 48 49 50
493
ASUS44 KLUB 191710
RWRTX
WEST TEXAS WEATHER ROUNDUP
NATIONAL WEATHER SERVICE LUBBOCK TX
1100 AM CST SUN FEB 19 2017

NOTE: "FAIR" INDICATES FEW OR NO CLOUDS BELOW 12,000 FEET WITH NO
SIGNIFICANT WEATHER AND/OR OBSTRUCTIONS TO VISIBILITY.

TXZ004-006>008-010-012-014-016-OKZ002-191800-
TEXAS PANHANDLE/OKLAHOMA PANHANDLE

CITY           SKY/WX    TMP DP  RH WIND       PRES   REMARKS
AMARILLO       PTSUNNY   53  50  89 SE16      29.85R
BORGER         SUNNY     61  51  70 S17G28    29.83F
CANADIAN       MOSUNNY   58  52  81 S10       29.88S
DALHART        MOSUNNY   57  44  62 S18       29.82F
DUMAS          MOSUNNY   57  46  65 S18       29.82S
GUYMON         SUNNY     62  48  60 S13G20    29.79F
HEREFORD       PTSUNNY   55  46  69 S13G18    29.86R
PAMPA          MOSUNNY   60  52  76 S18       29.86S
PERRYTON       MOSUNNY   62  51  67 S17       29.83F
$$

TXZ026-029-035-045-048-191800-
SOUTHERN PANHANDLE/SOUTH PLAINS/ROLLING PLAINS

CITY           SKY/WX    TMP DP  RH WIND       PRES   REMARKS
CHILDRESS      MOSUNNY   56  50  80 SE9       29.89F
SEMINOLE       PTSUNNY   63  35  35 SW7       29.87F
LUBBOCK        PTSUNNY   62  47  57 S10       29.84F
PLAINVIEW      CLOUDY    60  49  65 S15       29.83F
SNYDER         CLOUDY    64  57  78 S14G20    29.88R
$$

TXZ052-054-060>062-072-078-127-140-154-169-191800-
PERMIAN BASIN/CONCHO VALLEY/BIG COUNTRY/EDWARDS PLATEAU

CITY           SKY/WX    TMP DP  RH WIND       PRES   REMARKS
ABILENE        PTSUNNY   68  61  78 S18G29    29.87R
BIG SPRING     PTSUNNY   66  52  59 SW12      29.89R
BROWNWOOD      CLOUDY    70  63  78 S13G20    29.89R HAZE
JUNCTION       CLOUDY    71  63  75 S16G24    29.85S
MIDLAND        MOSUNNY   67  37  33 NW7       29.87R
ODESSA         MOSUNNY   67  36  31 W5        29.87F
SAN ANGELO     CLOUDY    69  60  73 S8        29.86S
SONORA         PTSUNNY   68  63  83 S3        29.92R
SWEETWATER     CLOUDY    64  60  86 SE13      29.90F
WINK           CLOUDY    65  32  29 SW9       29.86S
$$

TXZ055-058-074-075-080-082-191800-
FAR WEST/SOUTHWEST MOUNTAINS/TRANS PECOS

CITY           SKY/WX    TMP DP  RH WIND       PRES   REMARKS
ALPINE         CLOUDY    58  34  39 SW16G30   29.99S
DRYDEN           N/A     68  42  38 N10       29.86S
EL PASO        MOSUNNY   52  30  43 W13       29.93R
FORT STOCKTON  CLOUDY    60  32  34 SE6       29.91R
GUADALUPE PASS MOSUNNY   49  33  54 W29G37    29.91R
MARFA          CLOUDY    53  38  56 S10       29.97S
PECOS          CLOUDY    63  32  31 S10       29.88R
PRESIDIO       PTSUNNY   62  33  34 S3        29.95R
$$

TXZ014-016-019-021>030-083-191800
TEXAS TECH WEST TEXAS MESONET/TEXAS PANHANDLE/NORTHERN SOUTH PLAINS

CITY           SKY/WX    TMP DP  RH WIND       PRES   REMARKS
ABERNATHY 5ENE   N/A     61  49  62 S13       29.86S
AMARILLO 9NNE    N/A     56  50  78 S21       29.84R
AMARILLO 7SSE    N/A     55  50  82 S16       29.86R
AMHERST 1NE      N/A     53  42  66 W3        29.85F
BOOTLEG 11WNW    N/A     52  39  61 S6        29.86S
CANADIAN 6E      N/A     56  49  79 SE13      29.86S
CAPROCK CYN SP   N/A     49  49 100 SE3       29.89S
CHILDRESS 2NNE   N/A     56  55  96 SE10      29.88F
CLARENDON 2WSW   N/A     53  52  95 SE10      29.87S
CLAUDE 12SW      N/A     52  50  92 SE10      29.86R
DIMMITT 2NE      N/A     52  43  72 S10       29.86R
FLOYDADA 2NNE    N/A     62  54  75 S15       29.86F
FRIONA 2NE       N/A     53  42  66 SW6       29.87R
GOODLETT 3W      N/A     55  54  95 S8        29.88F
HART 3N          N/A     54  46  73 S9        29.86R
HEREFORD 2NW     N/A     54  42  64 S10       29.85R
MEMPHIS 1NE      N/A     52  52  98 SE9       29.88F
MULESHOE 2SSW    N/A     53  41  62 W6        29.86F
OLTON 6S         N/A     57  41  56 S7        29.85S
PALO DURO SP     N/A     54  49  84 SE6       29.87R
PAMPA 2E         N/A     54  51  90 SE21      29.86S
PLAINVIEW 1S     N/A     61  50  67 S13       29.84F
SILVERTON 7ESE   N/A     57  49  74 SE12      29.87S
TULIA 2ENE       N/A     58  51  78 S16       29.86R
TURKEY 2WSW      N/A     49  49  98 SE6       29.88S
UMBARGER 3NNE    N/A     56  46  70 S15       29.86S
$$

TXZ033>036-039>041-045>048-191800
TEXAS TECH WEST TEXAS MESONET/SOUTH PLAINS

CITY           SKY/WX    TMP DP  RH WIND       PRES   REMARKS
AIKEN 3WSW       N/A     62  51  68 S15       29.86F
ANDREWS 2NE      N/A     64  32  30 W3        29.86F
ANTON 6SSW       N/A     57  41  56 W7        29.84F
BROWNFIELD 2S    N/A     58  38  46 W12       29.85S
DENVR CTY 7WNW   N/A     59  34  38 W3        29.86R
GAIL 2ESE        N/A     63  55  77 SE6       29.86S
LAMESA 2SE       N/A     61  40  44 W6        29.87S
LEVELLAND 4S     N/A     56  37  48 W8        29.86R
LUBBOCK 3WNW     N/A     63  38  39 S5        29.85S
MORTON 1ENE      N/A     57  37  46 W9        29.85F
ODONNELL 1N      N/A     62  37  38 SW5       29.86S
PLAINS 3N        N/A     61  35  37 W6        29.86S
RALLS 1SE        N/A     59  53  80 SE12      29.87F
REESE CENTER     N/A     58  38  47 SW5       29.85S
SEAGRAVES 1SW    N/A     62  37  40 W8        29.86S
SEMINOLE 2NNE    N/A     64  33  31 SW7       29.86S
SLATON 2NE       N/A     62  51  67 S10       29.86F
SNYDER 3E        N/A     65  57  77 S16       29.87R
SUNDOWN 8SW      N/A     59  36  42 W8        29.86R
TAHOKA 3NNE      N/A     65  42  43 S9        29.85S
WOLFFORTH 6SSW   N/A     59  38  46 W6        29.86S
$$

TXZ031-032-036>038-042>044-191800-
TEXAS TECH WEST TEXAS MESONET/ROLLING PLAINS

CITY           SKY/WX    TMP DP  RH WIND       PRES   REMARKS
ASPERMONT 3NE    N/A     58  52  81 NE2       29.88S
FLUVANNA 3WNW    N/A     61  55  82 S14       29.86S
GRAHAM 5SSW      N/A     60  53  78 SE7       29.86S
GUTHRIE 10WSW    N/A     58  53  83 E6        29.86F
HASKELL 1NW      N/A     62  57  84 W5        29.88R
JAYTON 1SSE      N/A     57  51  80 E7        29.87S
KNOX CITY 3NW    N/A     55  50  84 N1        29.90S
LK A HENRY 1NW   N/A     65  56  72 S13       29.85S
NORTHFIELD 1S    N/A     53  53  98 SE7       29.87F
ODELL 4ENE       N/A     57  57 100 S2        29.91R
PADUCAH 10SW     N/A     53  53  98 SE3       29.88F
POST 1NE         N/A     58  51  76 SE2       29.86F
RRING SPRGS 3N   N/A     54  52  92 S5        29.87S
SEYMOUR 3NW      N/A     69  58  69 S13       29.88R
SPUR 1W          N/A     60  52  75 SE6       29.85S
WEINERT 2NNE     N/A     57  53  85 N6        29.89S
WHITE RVR 6NE    N/A     55  49  80 SE1       29.86F
$$

TXZ052-054-060>062-072-078-127-140-154-169-191800-
TEXAS TECH WEST TEXAS MESONET/PERMIAN BASIN/
CONCHO VALLEY/BIG COUNTRY/EDWARDS PLATEAU

CITY           SKY/WX    TMP DP  RH WIND       PRES   REMARKS
COYANOSA 2N      N/A     64  33  31 S5        29.89R
JUNCTION 1SSW    N/A     71  63  75 S15       29.86S
MERTZON 3NNE     N/A     66  59  78 S5        29.88F
SAN ANGELO 7NW   N/A     67  58  72 S2        29.87F
STRLNG CT 4WSW   N/A     65  58  79 S7        29.88F
ST LAWRNCE 5SW   N/A     65  38  36 SW13      29.88S
SWEETWATR 11SW   N/A     63  58  84 S15       29.89S
WALL 1E          N/A     69  61  76 S7        29.88R
$$

TXZ055-058-074-075-080-082-191800-
TEXAS TECH WEST TEXAS MESONET/FAR WEST/SOUTHWEST MOUNTAINS/TRANS PECOS

CITY           SKY/WX    TMP DP  RH WIND       PRES   REMARKS
PRSMN GAP BBNP   N/A     66  32  28 W2        29.91F
GUADLPE MTN NP   N/A     47  27  45 W17       29.90S
$$




USA.gov is the U.S. government's official web portal to all federal, state and local government web resources and services.